GFSSE_925_rhum_129.txt.gz
RH
37 54 51 48 42 40 41 44 46 48 45 42 42 42 43 46 46 50 53 59 63 60 57 56 56 68 68 64 69 65 62 62 64 64 68 77 81 81 75 72 75 75 81
40 57 46 48 42 40 42 44 45 49 45 48 45 44 44 45 46 49 56 58 59 57 59 57 66 72 73 73 68 67 59 61 62 63 67 80 85 80 71 78 80 73 82
45 62 57 50 45 42 44 45 46 48 49 52 49 47 44 45 46 48 55 59 64 87 68 63 66 71 69 68 68 62 58 58 60 58 74 69 78 78 77 83 76 61 81
49 66 64 52 50 44 44 44 46 48 50 53 54 50 47 47 47 47 52 59 66 80 75 68 68 74 71 68 64 62 55 56 57 54 77 73 75 74 80 86 78 69 77
46 50 65 52 53 46 43 43 42 44 49 51 55 53 49 49 50 50 54 59 63 64 62 58 71 73 69 68 67 62 52 52 55 59 64 66 72 77 80 82 79 76 70
46 52 66 55 54 53 46 45 44 43 45 50 53 54 51 49 51 52 57 62 64 64 65 65 73 75 74 72 70 66 57 52 56 68 49 57 68 71 72 76 87 80 79
46 55 75 56 54 57 57 49 48 48 48 50 54 54 55 52 52 54 58 65 68 77 84 76 74 76 78 76 73 69 60 52 61 57 46 58 78 72 66 74 79 75 81
50 58 68 70 59 60 62 62 56 52 51 53 57 60 60 59 56 58 60 65 69 73 80 86 76 75 76 77 72 70 63 53 60 58 46 50 66 72 68 72 78 69 72
43 58 69 73 83 67 63 63 63 63 58 54 53 56 60 64 66 64 66 69 70 73 73 81 81 75 74 78 72 71 65 57 64 51 46 49 65 70 68 76 74 74 71
23 31 50 64 74 75 83 67 61 61 62 61 58 56 56 61 67 72 75 76 74 73 68 68 75 75 78 81 76 70 68 64 66 66 46 49 64 63 67 80 78 75 74
20 23 27 36 50 64 71 70 80 68 68 68 69 66 63 73 72 82 83 87 82 73 71 69 69 74 80 81 73 71 75 79 68 60 46 49 57 64 67 78 79 79 78
20 21 20 29 35 54 56 55 76 79 85 86 83 81 90 81 74 66 66 69 73 82 77 75 68 67 72 77 73 71 89 73 61 50 45 51 58 63 65 73 78 76 78
28 29 44 53 58 45 49 50 53 54 59 65 72 78 79 85 81 80 72 77 87 86 88 84 85 86 79 74 60 70 75 70 59 48 44 52 57 61 63 70 75 74 72
36 43 55 63 74 91 80 54 49 47 48 52 57 82 86 88 89 89 81 79 80 74 79 75 81 77 77 75 68 59 56 55 50 46 44 50 57 61 61 67 68 71 67
45 51 63 66 77 83 100 99 89 80 64 63 69 79 85 85 88 88 90 91 86 82 80 80 81 83 84 83 79 71 66 59 56 52 44 53 57 63 62 65 67 70 67
51 57 67 70 81 86 94 99 100 99 100 100 100 100 98 99 99 98 96 95 95 93 89 87 85 86 88 88 87 83 78 72 69 60 52 58 60 61 62 66 68 69 73
52 60 65 67 78 84 85 89 97 97 99 100 100 100 100 99 99 100 99 100 99 99 96 94 92 90 88 90 89 86 85 82 79 76 70 54 65 62 62 61 69 70 71
55 62 64 69 71 76 82 82 84 85 84 82 84 88 90 91 91 91 92 91 93 97 98 99 99 88 85 92 94 97 94 88 88 83 76 71 63 66 63 64 60 64 70
54 59 61 67 72 70 71 78 76 75 73 73 74 79 81 85 86 85 76 75 82 82 84 87 89 97 100 94 93 96 99 96 91 89 88 82 80 73 74 75 67 65 67
55 58 62 67 73 69 63 65 71 67 72 67 69 76 77 81 83 80 69 70 73 68 66 67 79 87 97 92 99 100 98 94 94 92 92 92 98 95 86 76 80 78 73
56 56 58 62 70 69 65 63 59 66 72 68 69 72 74 79 84 84 87 84 87 81 82 80 74 70 67 71 90 92 93 87 80 98 92 92 82 69 54 79 69 87 83
56 57 56 58 63 66 64 66 65 65 63 67 67 68 72 77 88 88 97 96 97 95 95 97 96 89 72 63 70 85 88 83 99 99 89 86 92 70 53 65 76 80 87
61 63 61 63 63 70 72 62 63 58 53 58 58 68 73 79 85 94 95 94 96 95 96 97 99 100 97 82 73 70 86 71 59 88 99 100 87 78 79 81 78 88 85
64 67 69 69 68 71 76 70 71 65 62 64 61 65 68 76 80 89 92 93 96 96 97 99 97 100 100 98 92 72 67 69 83 75 69 92 92 90 86 80 72 75 77
64 64 67 67 67 76 78 81 76 74 73 71 73 73 68 72 78 84 90 91 94 96 98 100 99 100 100 100 100 97 88 73 71 77 78 61 66 81 83 84 82 75 74
65 67 66 64 63 71 75 78 83 84 85 82 86 85 85 79 80 87 91 94 95 96 98 99 100 100 100 99 100 99 98 93 81 71 78 73 65 58 56 64 72 78 77

GFSSE_925_rhum_132.txt.gz
RH
50 47 46 45 43 42 43 44 45 42 40 38 38 38 38 38 39 43 50 56 65 66 59 58 63 65 60 55 58 57 51 53 56 59 64 69 73 70 68 74 81 75 76
53 48 48 46 43 43 44 44 45 45 44 40 41 40 42 42 44 44 49 56 60 60 60 61 63 71 69 66 66 62 52 55 58 61 65 68 72 71 77 79 85 75 79
56 55 49 48 45 43 44 45 45 47 46 44 45 44 44 47 49 48 49 52 55 56 61 60 69 74 74 74 68 63 55 54 57 63 75 73 72 69 78 81 81 70 79
57 68 66 50 47 45 46 47 47 48 47 49 49 47 45 47 49 49 51 52 51 57 62 64 70 74 71 71 68 60 55 51 52 62 80 80 82 74 78 80 67 67 78
47 58 62 49 49 46 46 48 50 50 49 51 54 52 48 46 49 50 53 54 56 66 71 73 70 75 72 68 66 62 54 48 47 54 75 72 73 74 71 82 76 64 74
52 60 62 53 54 50 47 48 48 49 52 54 55 57 52 48 49 52 54 56 60 64 69 68 70 74 70 70 69 66 59 48 43 52 74 71 77 69 68 72 82 68 84
52 68 65 55 55 57 52 49 50 51 52 56 60 62 60 55 52 54 55 60 68 70 71 67 70 77 76 75 72 69 63 51 45 52 69 71 66 70 62 67 83 80 80
55 65 73 73 62 56 58 57 52 48 48 50 54 58 59 61 59 58 60 61 66 72 78 82 82 82 81 80 76 72 64 54 46 58 60 63 59 61 65 64 76 78 76
33 49 64 72 75 75 60 58 60 60 55 52 52 54 58 60 62 62 61 64 65 69 74 83 89 86 86 82 81 74 67 58 47 50 58 52 59 61 61 63 71 68 69
25 24 28 42 51 68 77 76 64 62 66 65 60 58 59 60 64 68 69 69 68 68 71 73 78 82 85 83 80 78 69 63 54 46 56 63 60 63 57 58 68 73 74
23 27 44 50 48 46 58 64 74 76 70 69 70 67 63 62 68 70 69 73 73 71 68 67 69 70 74 83 82 79 74 66 62 56 48 61 53 62 60 54 65 72 74
30 41 53 59 58 64 61 64 58 71 70 65 66 76 80 73 72 75 73 71 67 66 71 72 70 70 74 80 83 72 69 60 67 68 61 58 58 58 58 58 63 70 75
37 50 59 61 62 74 75 87 75 75 62 68 71 69 76 84 86 83 78 75 76 77 80 78 77 77 75 71 71 74 65 57 61 62 61 52 54 56 57 56 62 72 73
46 59 64 67 70 77 79 89 91 91 81 79 71 68 70 75 85 86 87 83 80 81 82 83 85 76 75 78 78 71 72 67 70 60 55 54 50 54 56 56 59 70 72
51 60 68 70 80 85 86 88 96 99 99 100 98 93 87 90 90 92 92 90 79 76 81 80 83 84 86 81 78 77 72 76 70 61 53 50 51 52 54 56 55 63 68
53 59 66 69 74 80 87 85 88 93 97 98 100 99 100 98 100 93 98 100 99 97 94 88 80 74 78 82 84 78 74 71 72 65 56 61 58 58 55 56 54 60 64
54 60 65 67 71 74 76 82 78 82 84 85 87 90 92 93 92 91 91 94 90 88 89 90 94 86 83 78 76 73 73 75 73 71 68 63 64 61 58 57 54 57 67
54 59 64 70 71 70 71 78 77 75 75 77 77 80 83 84 85 82 78 76 79 78 77 76 77 76 76 83 90 89 92 89 86 72 72 67 70 70 69 70 60 52 59
55 58 61 67 71 67 65 70 73 75 73 70 69 76 80 80 82 79 75 77 76 73 70 77 85 87 91 90 89 84 78 86 80 85 92 82 67 72 83 84 78 71 70
54 54 56 63 66 63 63 61 61 66 72 69 73 73 74 80 83 82 81 82 84 81 83 82 84 82 79 74 75 84 85 78 81 74 69 80 87 92 95 100 86 84 82
57 56 58 60 64 66 62 64 62 63 64 68 67 71 76 80 84 87 91 89 90 91 92 92 93 88 82 75 75 77 74 75 68 84 75 78 89 80 90 82 70 66 78
60 62 60 62 64 70 69 64 63 59 58 58 64 68 73 79 85 88 92 91 95 93 91 92 92 93 91 89 91 86 90 73 68 76 80 83 88 81 74 68 65 71 76
62 65 65 66 66 72 74 70 67 59 58 63 62 67 68 77 81 87 89 91 95 95 92 93 93 95 93 91 90 92 93 89 81 62 69 83 88 98 88 78 80 85 81
61 64 65 64 66 72 76 77 73 71 69 69 74 75 72 74 79 86 89 93 93 95 94 96 96 96 93 94 92 84 87 92 87 84 65 68 68 84 97 96 88 84 75
62 64 64 60 65 71 73 77 78 80 80 77 80 81 81 84 86 92 90 93 93 94 95 94 94 92 95 98 98 98 96 88 84 83 87 75 76 75 79 78 90 89 83
60 62 60 59 64 72 75 77 80 79 78 77 80 82 88 87 90 94 96 96 95 96 97 97 96 98 96 97 98 100 99 98 95 93 88 80 84 77 73 70 69 73 77

GFSSE_925_rhum_135.txt.gz
RH
53 48 46 41 41 42 43 44 43 40 35 37 35 32 33 36 39 45 53 58 61 63 56 54 56 62 66 61 65 62 51 52 55 60 68 73 72 74 79 87 79 77 81
48 48 47 43 42 44 45 45 44 42 39 41 39 36 36 36 38 44 52 60 67 60 55 59 63 66 61 61 62 58 48 51 57 65 70 73 70 75 83 89 83 74 80
48 50 49 45 44 46 47 47 48 46 44 43 43 41 39 39 40 42 47 56 60 58 60 60 66 69 67 67 62 59 52 52 62 71 75 73 70 76 81 87 78 76 79
64 49 49 47 46 47 50 50 50 50 48 46 47 45 41 42 44 45 48 52 56 58 61 61 68 71 71 70 65 57 52 51 63 76 90 86 68 72 79 82 69 76 80
60 59 56 49 48 48 50 52 53 53 52 51 54 50 47 45 46 48 51 55 56 61 67 67 67 68 70 70 66 61 53 47 61 68 80 76 75 66 77 73 66 74 78
66 61 60 52 52 48 47 47 48 50 51 51 54 56 54 50 48 50 54 56 58 65 84 78 73 68 72 69 67 64 60 51 55 60 71 75 77 63 64 78 71 71 76
72 72 59 53 53 53 49 46 46 46 47 48 51 53 57 55 50 49 52 55 57 61 68 77 75 69 72 70 71 68 61 52 48 52 64 74 78 66 58 68 73 66 79
70 73 72 73 68 56 54 54 51 50 50 52 54 57 60 62 58 53 52 54 57 62 65 79 80 81 80 77 74 70 64 54 48 47 61 71 70 71 62 58 69 69 81
39 53 79 89 87 84 77 61 56 58 56 54 56 60 65 66 65 63 58 56 57 58 64 69 81 84 84 83 82 74 65 56 48 44 50 71 70 67 59 55 59 70 72
44 42 48 52 60 66 72 83 75 66 60 61 61 59 58 61 64 68 70 68 64 65 64 66 69 78 85 83 79 77 76 64 49 42 47 59 70 69 62 54 56 64 66
53 53 50 45 48 60 74 83 93 81 72 66 61 62 63 61 60 61 61 61 64 65 66 68 68 68 73 80 80 76 76 74 60 47 43 49 62 68 60 53 56 61 64
57 55 52 48 43 56 69 82 91 98 98 94 70 61 63 64 65 64 65 71 72 70 65 67 69 68 72 82 79 78 85 74 65 51 45 48 61 69 58 57 56 57 67
56 50 50 52 53 63 68 77 92 98 98 94 98 92 83 83 86 86 86 85 82 80 80 77 76 75 76 78 84 82 79 72 65 53 49 47 65 66 61 59 58 55 61
56 58 56 62 68 79 83 79 92 98 98 99 100 93 84 77 85 87 86 83 83 86 82 78 80 81 79 70 69 78 78 74 73 63 53 52 63 65 61 60 57 53 58
59 63 65 66 70 74 85 80 84 88 92 94 98 98 96 96 95 94 94 95 90 89 85 84 82 85 85 83 76 77 76 75 74 73 69 63 63 64 60 57 57 52 53
60 63 65 66 71 70 80 82 75 81 81 83 87 90 91 90 88 85 88 89 89 92 85 85 87 86 84 87 86 87 89 89 85 79 68 63 66 62 60 59 58 55 53
61 62 65 63 66 72 76 76 78 72 70 72 78 82 82 85 86 83 82 87 82 76 76 76 77 77 75 75 77 78 79 82 83 90 91 87 96 71 64 61 60 58 53
58 61 65 62 60 64 67 75 68 74 74 76 72 74 79 79 80 81 84 81 78 76 80 87 87 83 82 82 79 74 76 76 78 74 64 76 79 95 80 71 68 64 60
56 59 63 65 65 61 60 64 70 69 68 71 72 75 76 74 74 79 83 83 79 79 77 80 79 83 80 79 78 75 69 72 72 70 72 79 80 85 98 98 95 85 74
58 60 63 65 67 65 64 61 59 68 62 61 65 68 74 76 74 68 78 81 74 76 81 81 80 76 77 88 71 66 67 65 72 61 74 75 65 63 78 78 87 96 98
62 63 64 67 67 66 68 68 63 63 61 65 70 70 72 76 78 78 88 88 86 85 90 92 93 92 89 88 89 74 49 42 58 66 79 80 80 85 85 74 73 54 62
64 65 67 68 70 71 73 70 69 67 68 73 73 77 78 80 81 80 86 94 94 94 94 90 93 92 91 92 92 97 96 73 78 65 65 81 78 66 82 94 97 83 76
65 66 66 68 70 75 74 72 65 63 65 69 75 77 82 88 88 85 85 92 94 94 94 95 94 92 92 88 88 94 96 98 84 62 61 69 67 71 81 82 82 91 87
65 64 65 67 71 74 76 78 78 80 79 81 80 83 81 86 87 86 87 91 94 95 95 96 95 95 91 92 86 89 83 91 93 91 71 68 73 73 79 82 97 100 96
64 64 64 68 71 75 78 78 80 80 78 80 81 83 90 89 93 89 94 94 92 92 96 95 94 94 93 95 97 98 93 84 82 91 88 84 74 72 73 73 74 71 93
64 61 61 68 74 76 78 80 81 81 80 84 84 86 88 88 91 88 91 91 89 92 93 93 94 94 99 96 98 99 100 98 93 94 88 79 86 79 77 80 78 73 74

GFSSE_925_rhum_138.txt.gz
RH
61 55 52 50 48 48 47 43 38 34 35 35 31 31 32 36 44 56 62 58 59 62 58 56 58 60 62 60 64 59 58 62 66 69 73 79 79 78 79 78 86 86 82
53 54 49 49 46 46 47 46 42 39 38 39 36 35 36 38 45 52 60 66 69 61 56 57 62 65 62 66 67 60 55 63 64 65 72 74 78 87 89 86 78 83 82
51 50 47 46 47 48 47 47 45 45 40 44 41 38 39 39 43 52 60 65 63 57 58 61 65 70 66 67 65 62 58 63 65 69 77 70 76 84 85 84 74 80 82
51 50 47 46 47 49 50 49 49 50 43 47 46 43 41 43 46 48 53 58 60 59 60 60 66 71 70 69 62 58 57 61 64 81 78 72 75 79 83 83 74 77 82
60 59 50 49 47 48 50 50 51 51 48 47 50 48 44 42 45 46 48 53 57 58 61 64 64 67 69 67 63 58 57 57 60 80 86 81 81 73 79 81 69 75 79
64 62 54 52 50 49 49 49 51 52 52 52 53 53 50 46 43 46 48 49 52 57 78 71 73 68 69 71 65 60 60 61 57 60 75 80 82 75 76 72 64 72 76
74 69 69 67 61 54 50 49 50 51 52 55 57 57 57 54 48 46 47 48 49 52 59 76 72 70 68 72 68 65 62 64 62 54 60 76 79 80 72 73 70 66 76
89 92 94 92 86 80 77 62 54 52 52 54 57 60 61 62 60 55 52 53 54 54 57 60 61 65 65 71 74 72 68 66 70 62 54 70 76 78 70 72 66 60 69
56 58 59 63 79 86 86 81 75 64 57 54 52 52 54 59 61 60 58 56 57 60 63 65 67 72 77 78 77 79 74 68 68 71 60 57 69 80 76 68 67 58 65
48 46 44 41 54 72 83 90 92 94 88 83 66 58 54 55 58 62 63 62 61 59 60 63 68 73 80 85 86 78 76 72 66 65 65 54 67 72 74 69 69 60 58
46 44 42 39 39 54 66 89 96 99 97 95 87 86 76 65 62 61 60 60 63 64 64 66 67 67 65 66 78 84 89 85 70 57 57 57 54 71 75 69 64 61 54
56 51 46 47 49 50 58 73 85 90 95 98 99 96 94 81 73 72 71 71 75 78 78 76 74 75 76 77 76 80 84 84 72 63 56 51 55 53 70 71 63 63 58
56 53 54 58 65 69 66 76 87 98 99 98 99 99 97 100 99 99 99 99 97 90 85 87 86 87 83 77 72 75 71 71 66 63 56 50 52 55 58 74 66 59 61
58 60 60 65 68 81 76 80 86 89 91 94 98 97 98 100 100 97 99 99 99 99 96 95 95 88 86 83 82 80 81 80 74 67 63 62 64 60 67 70 69 62 62
58 60 61 64 70 81 82 75 81 81 83 86 89 92 93 90 92 92 91 90 90 90 87 85 86 88 87 86 83 81 81 87 91 92 89 90 78 75 86 75 72 67 62
60 60 58 61 69 76 76 77 73 72 76 80 81 82 83 85 85 86 91 88 80 81 79 82 85 85 88 89 85 85 91 91 88 88 86 90 87 86 77 92 94 75 70
59 59 60 60 64 69 75 74 74 75 73 72 74 76 77 79 82 86 85 83 81 77 76 76 77 78 79 81 82 82 79 80 82 89 89 91 86 84 57 71 86 86 80
59 60 61 62 61 62 68 73 70 68 69 70 68 68 66 64 70 80 82 80 81 82 79 76 75 74 75 77 77 76 75 72 74 76 82 87 74 70 62 65 64 88 98
64 65 63 62 63 63 64 65 70 64 65 67 67 65 64 62 61 65 72 74 75 76 78 78 74 73 73 78 69 62 64 64 59 71 74 89 79 72 73 69 91 90 87
63 65 66 64 63 62 62 62 67 70 72 76 77 76 73 71 67 64 72 75 76 81 81 79 80 69 80 86 65 57 58 49 51 60 75 78 82 74 81 89 85 71 61
64 65 68 66 67 65 64 63 73 80 77 80 84 84 80 78 78 76 78 80 82 90 91 91 93 87 84 85 87 63 39 73 67 69 92 98 93 100 99 92 83 79 78
65 66 69 68 69 70 70 72 73 78 77 76 80 83 84 83 83 82 82 87 92 94 94 94 95 96 90 86 88 96 97 72 79 68 62 68 78 71 85 96 100 100 100
66 67 70 68 70 71 71 68 69 68 76 74 79 82 89 85 87 83 84 89 92 93 95 93 94 94 95 91 84 95 86 88 82 63 66 69 67 71 81 90 83 94 98
66 69 69 69 70 72 71 72 77 81 86 83 83 86 88 88 87 90 92 91 88 91 93 94 95 93 94 95 88 88 84 93 88 94 72 64 74 70 72 64 76 71 70
67 69 71 70 71 73 73 75 78 82 82 82 84 85 84 87 84 84 87 89 91 90 91 91 93 94 98 97 99 99 93 84 77 92 82 87 75 78 78 85 73 65 72
64 69 70 68 74 75 76 80 82 84 85 84 89 90 91 91 84 88 88 90 93 93 92 97 96 96 97 98 98 99 100 97 92 94 92 82 78 78 79 81 78 82 78